Time,TemperatureF,DewpointF,PressureIn,WindDirection,WindDirectionDegrees,WindSpeedMPH,WindSpeedGustMPH,Humidity,HourlyPrecipIn,Conditions,Clouds,dailyrainin,SoftwareType,DateUTC
2013-06-03 00:03:00,78.0,-99.9,29.96,SSE,168,12.0,15.0,-999,-99.99,,,-99.99,,2013-06-03 04:03:00,
2013-06-03 00:13:00,78.0,-99.9,29.96,South,170,13.0,17.0,-999,-99.99,,,-99.99,,2013-06-03 04:13:00,
2013-06-03 00:23:00,78.0,-99.9,29.96,South,176,13.0,15.0,-999,-99.99,,,-99.99,,2013-06-03 04:23:00,
2013-06-03 00:33:00,78.0,-99.9,29.95,SSE,166,12.0,17.0,-999,-99.99,,,-99.99,,2013-06-03 04:33:00,
2013-06-03 00:42:00,78.0,-99.9,29.95,South,175,13.0,15.0,-999,-99.99,,,-99.99,,2013-06-03 04:42:00,
2013-06-03 00:53:00,78.0,-99.9,29.95,South,180,12.0,15.0,-999,-99.99,,,-99.99,,2013-06-03 04:53:00,
2013-06-03 01:03:00,78.0,-99.9,29.95,South,186,11.0,19.0,-999,-99.99,,,-99.99,,2013-06-03 05:03:00,
2013-06-03 01:13:00,77.0,-99.9,29.95,SSW,204,10.0,17.0,-999,-99.99,,,-99.99,,2013-06-03 05:13:00,
2013-06-03 01:22:00,78.0,-99.9,29.95,SSW,196,9.0,13.0,-999,-99.99,,,-99.99,,2013-06-03 05:22:00,
2013-06-03 01:32:00,77.0,-99.9,29.95,SSW,201,12.0,17.0,-999,-99.99,,,-99.99,,2013-06-03 05:32:00,
2013-06-03 01:43:00,78.0,-99.9,29.95,SSW,197,9.0,16.0,-999,-99.99,,,-99.99,,2013-06-03 05:43:00,
2013-06-03 01:52:00,78.0,-99.9,29.95,SSW,198,10.0,15.0,-999,-99.99,,,-99.99,,2013-06-03 05:52:00,
2013-06-03 02:02:00,77.0,-99.9,29.95,SSW,205,9.0,14.0,-999,-99.99,,,-99.99,,2013-06-03 06:02:00,
2013-06-03 02:12:00,77.0,-99.9,29.94,SSW,210,8.0,14.0,-999,-99.99,,,-99.99,,2013-06-03 06:12:00,
2013-06-03 02:22:00,77.0,-99.9,29.94,SSW,198,6.0,11.0,-999,-99.99,,,-99.99,,2013-06-03 06:22:00,
2013-06-03 02:32:00,77.0,-99.9,29.93,South,191,12.0,15.0,-999,-99.99,,,-99.99,,2013-06-03 06:32:00,
2013-06-03 02:42:00,77.0,-99.9,29.93,SSW,203,7.0,11.0,-999,-99.99,,,-99.99,,2013-06-03 06:42:00,
2013-06-03 02:53:00,77.0,-99.9,29.93,SSW,201,7.0,13.0,-999,-99.99,,,-99.99,,2013-06-03 06:53:00,
2013-06-03 03:02:00,77.0,-99.9,29.93,SSW,201,8.0,13.0,-999,-99.99,,,-99.99,,2013-06-03 07:02:00,
2013-06-03 03:12:00,77.0,-99.9,29.94,SSW,201,8.0,13.0,-999,-99.99,,,-99.99,,2013-06-03 07:12:00,
2013-06-03 03:22:00,77.0,-99.9,29.93,SSW,213,7.0,12.0,-999,-99.99,,,-99.99,,2013-06-03 07:22:00,
2013-06-03 03:32:00,77.0,-99.9,29.93,SSW,204,8.0,12.0,-999,-99.99,,,-99.99,,2013-06-03 07:32:00,
2013-06-03 03:42:00,77.0,-99.9,29.93,SSW,195,9.0,12.0,-999,-99.99,,,-99.99,,2013-06-03 07:42:00,
2013-06-03 03:52:00,77.0,-99.9,29.92,SSW,200,6.0,12.0,-999,-99.99,,,-99.99,,2013-06-03 07:52:00,
2013-06-03 04:02:00,77.0,-99.9,29.92,SSW,210,7.0,11.0,-999,-99.99,,,-99.99,,2013-06-03 08:02:00,
2013-06-03 04:12:00,77.0,-99.9,29.91,SSW,207,7.0,11.0,-999,-99.99,,,-99.99,,2013-06-03 08:12:00,
2013-06-03 04:22:00,77.0,-99.9,29.91,SSW,203,6.0,11.0,-999,-99.99,,,-99.99,,2013-06-03 08:22:00,
2013-06-03 04:32:00,77.0,-99.9,29.91,SSW,199,10.0,15.0,-999,-99.99,,,-99.99,,2013-06-03 08:32:00,
2013-06-03 04:42:00,77.0,-99.9,29.90,South,189,9.0,14.0,-999,-99.99,,,-99.99,,2013-06-03 08:42:00,
2013-06-03 04:52:00,77.0,-99.9,29.90,SSW,200,6.0,15.0,-999,-99.99,,,-99.99,,2013-06-03 08:52:00,
2013-06-03 05:02:00,77.0,-99.9,29.89,South,185,10.0,14.0,-999,-99.99,,,-99.99,,2013-06-03 09:02:00,
2013-06-03 05:12:00,77.0,-99.9,29.89,SSW,196,10.0,14.0,-999,-99.99,,,-99.99,,2013-06-03 09:12:00,
2013-06-03 05:22:00,77.0,-99.9,29.89,South,188,12.0,15.0,-999,-99.99,,,-99.99,,2013-06-03 09:22:00,
2013-06-03 05:33:00,77.0,-99.9,29.89,SSW,204,10.0,15.0,-999,-99.99,,,-99.99,,2013-06-03 09:33:00,
2013-06-03 05:43:00,77.0,-99.9,29.89,South,191,10.0,14.0,-999,-99.99,,,-99.99,,2013-06-03 09:43:00,
2013-06-03 05:53:00,77.0,-99.9,29.89,SSW,201,7.0,13.0,-999,-99.99,,,-99.99,,2013-06-03 09:53:00,
2013-06-03 06:03:00,77.0,-99.9,29.89,SSW,207,10.0,13.0,-999,-99.99,,,-99.99,,2013-06-03 10:03:00,
2013-06-03 06:13:00,78.0,-99.9,29.89,South,184,8.0,11.0,-999,-99.99,,,-99.99,,2013-06-03 10:13:00,
2013-06-03 06:22:00,78.0,-99.9,29.89,South,180,10.0,12.0,-999,-99.99,,,-99.99,,2013-06-03 10:22:00,
2013-06-03 06:33:00,78.0,-99.9,29.89,South,182,13.0,15.0,-999,-99.99,,,-99.99,,2013-06-03 10:33:00,
2013-06-03 06:42:00,77.0,-99.9,29.89,South,183,12.0,14.0,-999,-99.99,,,-99.99,,2013-06-03 10:42:00,
2013-06-03 06:53:00,77.0,-99.9,29.89,South,187,10.0,13.0,-999,-99.99,,,-99.99,,2013-06-03 10:53:00,
2013-06-03 07:03:00,78.0,-99.9,29.90,South,187,9.0,12.0,-999,-99.99,,,-99.99,,2013-06-03 11:03:00,
2013-06-03 07:12:00,78.0,-99.9,29.90,South,186,10.0,13.0,-999,-99.99,,,-99.99,,2013-06-03 11:12:00,
2013-06-03 07:22:00,78.0,-99.9,29.90,South,189,11.0,14.0,-999,-99.99,,,-99.99,,2013-06-03 11:22:00,
2013-06-03 07:32:00,78.0,-99.9,29.90,South,183,9.0,12.0,-999,-99.99,,,-99.99,,2013-06-03 11:32:00,
2013-06-03 07:42:00,78.0,-99.9,29.90,South,182,9.0,13.0,-999,-99.99,,,-99.99,,2013-06-03 11:42:00,
2013-06-03 07:52:00,78.0,-99.9,29.90,South,181,11.0,13.0,-999,-99.99,,,-99.99,,2013-06-03 11:52:00,
2013-06-03 08:02:00,78.0,-99.9,29.90,South,180,12.0,15.0,-999,-99.99,,,-99.99,,2013-06-03 12:02:00,
2013-06-03 08:12:00,78.0,-99.9,29.91,South,185,12.0,14.0,-999,-99.99,,,-99.99,,2013-06-03 12:12:00,
2013-06-03 08:22:00,78.0,-99.9,29.91,South,181,10.0,14.0,-999,-99.99,,,-99.99,,2013-06-03 12:22:00,
2013-06-03 08:32:00,78.0,-99.9,29.91,South,188,11.0,14.0,-999,-99.99,,,-99.99,,2013-06-03 12:32:00,
2013-06-03 08:42:00,78.0,-99.9,29.92,South,185,10.0,15.0,-999,-99.99,,,-99.99,,2013-06-03 12:42:00,
2013-06-03 08:52:00,78.0,-99.9,29.92,South,183,9.0,12.0,-999,-99.99,,,-99.99,,2013-06-03 12:52:00,
2013-06-03 09:02:00,78.0,-99.9,29.92,SSW,193,11.0,15.0,-999,-99.99,,,-99.99,,2013-06-03 13:02:00,
2013-06-03 09:12:00,79.0,-99.9,29.92,South,181,13.0,16.0,-999,-99.99,,,-99.99,,2013-06-03 13:12:00,
2013-06-03 09:22:00,79.0,-99.9,29.92,South,188,15.0,18.0,-999,-99.99,,,-99.99,,2013-06-03 13:22:00,
2013-06-03 09:33:00,79.0,-99.9,29.92,South,181,16.0,19.0,-999,-99.99,,,-99.99,,2013-06-03 13:33:00,
2013-06-03 09:43:00,79.0,-99.9,29.92,South,181,15.0,20.0,-999,-99.99,,,-99.99,,2013-06-03 13:43:00,
2013-06-03 09:53:00,79.0,-99.9,29.92,South,183,15.0,18.0,-999,-99.99,,,-99.99,,2013-06-03 13:53:00,
2013-06-03 10:02:00,79.0,-99.9,29.92,South,180,13.0,17.0,-999,-99.99,,,-99.99,,2013-06-03 14:02:00,
2013-06-03 10:13:00,79.0,-99.9,29.92,South,182,13.0,16.0,-999,-99.99,,,-99.99,,2013-06-03 14:13:00,
2013-06-03 10:22:00,79.0,-99.9,29.91,South,180,14.0,18.0,-999,-99.99,,,-99.99,,2013-06-03 14:22:00,
2013-06-03 10:33:00,79.0,-99.9,29.91,South,175,13.0,16.0,-999,-99.99,,,-99.99,,2013-06-03 14:33:00,
2013-06-03 10:42:00,80.0,-99.9,29.92,South,189,12.0,16.0,-999,-99.99,,,-99.99,,2013-06-03 14:42:00,
2013-06-03 10:52:00,80.0,-99.9,29.92,South,188,12.0,16.0,-999,-99.99,,,-99.99,,2013-06-03 14:52:00,
2013-06-03 11:02:00,79.0,-99.9,29.91,South,187,15.0,18.0,-999,-99.99,,,-99.99,,2013-06-03 15:02:00,
2013-06-03 11:12:00,79.0,-99.9,29.92,SSW,200,11.0,17.0,-999,-99.99,,,-99.99,,2013-06-03 15:12:00,
2013-06-03 11:22:00,79.0,-99.9,29.92,SSW,192,14.0,17.0,-999,-99.99,,,-99.99,,2013-06-03 15:22:00,
2013-06-03 11:33:00,79.0,-99.9,29.93,SSW,201,12.0,18.0,-999,-99.99,,,-99.99,,2013-06-03 15:33:00,
2013-06-03 11:43:00,79.0,-99.9,29.94,West,271,6.0,13.0,-999,-99.99,,,-99.99,,2013-06-03 15:43:00,
2013-06-03 11:53:00,76.0,-99.9,29.94,West,275,8.0,14.0,-999,-99.99,,,-99.99,,2013-06-03 15:53:00,
2013-06-03 12:03:00,74.0,-99.9,29.94,WNW,301,9.0,16.0,-999,-99.99,,,-99.99,,2013-06-03 16:03:00,
2013-06-03 12:13:00,73.0,-99.9,29.94,NW,320,12.0,17.0,-999,-99.99,,,-99.99,,2013-06-03 16:13:00,
2013-06-03 12:23:00,73.0,-99.9,29.94,NW,325,8.0,17.0,-999,-99.99,,,-99.99,,2013-06-03 16:23:00,
2013-06-03 12:33:00,72.0,-99.9,29.93,ENE,59,2.0,6.0,-999,-99.99,,,-99.99,,2013-06-03 16:33:00,
2013-06-03 12:42:00,73.0,-99.9,29.93,East,95,1.0,4.0,-999,-99.99,,,-99.99,,2013-06-03 16:42:00,
2013-06-03 12:54:00,73.0,-99.9,29.93,ESE,119,-999.0,0.0,-999,-99.99,,,-99.99,,2013-06-03 16:54:00,
2013-06-03 13:02:00,73.0,-99.9,29.93,NE,48,3.0,5.0,-999,-99.99,,,-99.99,,2013-06-03 17:02:00,
2013-06-03 13:12:00,74.0,-99.9,29.92,East,95,0.0,2.0,-999,-99.99,,,-99.99,,2013-06-03 17:12:00,
2013-06-03 13:22:00,75.0,-99.9,29.93,WSW,241,4.0,5.0,-999,-99.99,,,-99.99,,2013-06-03 17:22:00,
2013-06-03 13:33:00,74.0,-99.9,29.92,WSW,242,4.0,8.0,-999,-99.99,,,-99.99,,2013-06-03 17:33:00,
2013-06-03 13:42:00,74.0,-99.9,29.92,SSW,197,6.0,11.0,-999,-99.99,,,-99.99,,2013-06-03 17:42:00,
2013-06-03 13:52:00,75.0,-99.9,29.90,South,185,9.0,11.0,-999,-99.99,,,-99.99,,2013-06-03 17:52:00,
2013-06-03 14:03:00,77.0,-99.9,29.91,SW,214,4.0,8.0,-999,-99.99,,,-99.99,,2013-06-03 18:03:00,
2013-06-03 14:12:00,77.0,-99.9,29.91,SSW,211,5.0,7.0,-999,-99.99,,,-99.99,,2013-06-03 18:12:00,
2013-06-03 14:22:00,78.0,-99.9,29.91,SW,235,4.0,8.0,-999,-99.99,,,-99.99,,2013-06-03 18:22:00,
2013-06-03 14:32:00,79.0,-99.9,29.91,WSW,255,6.0,11.0,-999,-99.99,,,-99.99,,2013-06-03 18:32:00,
2013-06-03 14:43:00,79.0,-99.9,29.91,WNW,285,8.0,13.0,-999,-99.99,,,-99.99,,2013-06-03 18:43:00,
2013-06-03 14:53:00,78.0,-99.9,29.89,West,278,4.0,12.0,-999,-99.99,,,-99.99,,2013-06-03 18:53:00,
2013-06-03 15:03:00,78.0,-99.9,29.91,WSW,256,8.0,11.0,-999,-99.99,,,-99.99,,2013-06-03 19:03:00,
2013-06-03 15:12:00,76.0,-99.9,29.91,WSW,254,9.0,13.0,-999,-99.99,,,-99.99,,2013-06-03 19:12:00,
2013-06-03 15:23:00,74.0,-99.9,29.91,WSW,250,10.0,13.0,-999,-99.99,,,-99.99,,2013-06-03 19:23:00,
2013-06-03 15:33:00,73.0,-99.9,29.92,SW,224,10.0,14.0,-999,-99.99,,,-99.99,,2013-06-03 19:33:00,
2013-06-03 15:42:00,72.0,-99.9,29.91,SSW,213,12.0,17.0,-999,-99.99,,,-99.99,,2013-06-03 19:42:00,
2013-06-03 15:53:00,72.0,-99.9,29.90,SW,225,8.0,13.0,-999,-99.99,,,-99.99,,2013-06-03 19:53:00,
2013-06-03 16:02:00,72.0,-99.9,29.89,SSW,207,8.0,9.0,-999,-99.99,,,-99.99,,2013-06-03 20:02:00,
2013-06-03 16:13:00,74.0,-99.9,29.88,SW,225,5.0,8.0,-999,-99.99,,,-99.99,,2013-06-03 20:13:00,
2013-06-03 16:22:00,73.0,-99.9,29.89,SSW,208,5.0,8.0,-999,-99.99,,,-99.99,,2013-06-03 20:22:00,
2013-06-03 16:33:00,74.0,-99.9,29.89,SSW,212,6.0,8.0,-999,-99.99,,,-99.99,,2013-06-03 20:33:00,
2013-06-03 16:43:00,74.0,-99.9,29.89,SSW,212,6.0,8.0,-999,-99.99,,,-99.99,,2013-06-03 20:43:00,
2013-06-03 16:53:00,73.0,-99.9,29.88,SW,214,8.0,11.0,-999,-99.99,,,-99.99,,2013-06-03 20:53:00,
2013-06-03 17:03:00,74.0,-99.9,29.88,SSW,206,7.0,14.0,-999,-99.99,,,-99.99,,2013-06-03 21:03:00,
2013-06-03 17:12:00,75.0,-99.9,29.87,SSW,211,4.0,6.0,-999,-99.99,,,-99.99,,2013-06-03 21:12:00,
2013-06-03 17:22:00,75.0,-99.9,29.86,SSW,205,4.0,6.0,-999,-99.99,,,-99.99,,2013-06-03 21:22:00,
2013-06-03 17:33:00,76.0,-99.9,29.87,SW,215,8.0,10.0,-999,-99.99,,,-99.99,,2013-06-03 21:33:00,
2013-06-03 17:43:00,76.0,-99.9,29.87,SW,214,6.0,9.0,-999,-99.99,,,-99.99,,2013-06-03 21:43:00,
2013-06-03 17:53:00,76.0,-99.9,29.86,SW,218,6.0,8.0,-999,-99.99,,,-99.99,,2013-06-03 21:53:00,
2013-06-03 18:03:00,76.0,-99.9,29.86,SW,214,7.0,9.0,-999,-99.99,,,-99.99,,2013-06-03 22:03:00,
2013-06-03 18:13:00,77.0,-99.9,29.87,SW,217,8.0,11.0,-999,-99.99,,,-99.99,,2013-06-03 22:13:00,
2013-06-03 18:23:00,77.0,-99.9,29.87,SSW,210,7.0,11.0,-999,-99.99,,,-99.99,,2013-06-03 22:23:00,
2013-06-03 18:33:00,78.0,-99.9,29.87,SSW,212,7.0,9.0,-999,-99.99,,,-99.99,,2013-06-03 22:33:00,
2013-06-03 18:42:00,78.0,-99.9,29.86,SW,216,7.0,9.0,-999,-99.99,,,-99.99,,2013-06-03 22:42:00,
2013-06-03 18:53:00,78.0,-99.9,29.86,SW,214,7.0,10.0,-999,-99.99,,,-99.99,,2013-06-03 22:53:00,
2013-06-03 19:02:00,78.0,-99.9,29.86,SW,217,8.0,11.0,-999,-99.99,,,-99.99,,2013-06-03 23:02:00,
2013-06-03 19:12:00,78.0,-99.9,29.87,SSW,213,8.0,9.0,-999,-99.99,,,-99.99,,2013-06-03 23:12:00,
2013-06-03 19:23:00,78.0,-99.9,29.87,SSW,211,7.0,11.0,-999,-99.99,,,-99.99,,2013-06-03 23:23:00,
2013-06-03 19:32:00,78.0,-99.9,29.86,SSW,201,4.0,7.0,-999,-99.99,,,-99.99,,2013-06-03 23:32:00,
2013-06-03 19:42:00,78.0,-99.9,29.86,SSW,196,5.0,8.0,-999,-99.99,,,-99.99,,2013-06-03 23:42:00,
2013-06-03 19:53:00,78.0,-99.9,29.87,SSW,205,6.0,8.0,-999,-99.99,,,-99.99,,2013-06-03 23:53:00,
2013-06-03 20:02:00,78.0,-99.9,29.88,SW,224,7.0,10.0,-999,-99.99,,,-99.99,,2013-06-04 00:02:00,
2013-06-03 20:12:00,78.0,-99.9,29.88,SW,216,5.0,8.0,-999,-99.99,,,-99.99,,2013-06-04 00:12:00,
2013-06-03 20:22:00,78.0,-99.9,29.89,SW,216,6.0,9.0,-999,-99.99,,,-99.99,,2013-06-04 00:22:00,
2013-06-03 20:32:00,78.0,-99.9,29.89,SSW,211,4.0,7.0,-999,-99.99,,,-99.99,,2013-06-04 00:32:00,
2013-06-03 20:42:00,78.0,-99.9,29.90,SSW,204,6.0,8.0,-999,-99.99,,,-99.99,,2013-06-04 00:42:00,
2013-06-03 20:52:00,78.0,-99.9,29.90,SSW,208,6.0,9.0,-999,-99.99,,,-99.99,,2013-06-04 00:52:00,
2013-06-03 21:02:00,78.0,-99.9,29.90,SW,216,6.0,9.0,-999,-99.99,,,-99.99,,2013-06-04 01:02:00,
2013-06-03 21:12:00,77.0,-99.9,29.90,SSW,209,4.0,7.0,-999,-99.99,,,-99.99,,2013-06-04 01:12:00,
2013-06-03 21:22:00,77.0,-99.9,29.90,SSW,211,5.0,7.0,-999,-99.99,,,-99.99,,2013-06-04 01:22:00,
2013-06-03 21:32:00,77.0,-99.9,29.90,SSW,205,5.0,7.0,-999,-99.99,,,-99.99,,2013-06-04 01:32:00,
2013-06-03 21:42:00,77.0,-99.9,29.90,SSW,204,7.0,10.0,-999,-99.99,,,-99.99,,2013-06-04 01:42:00,
2013-06-03 21:53:00,77.0,-99.9,29.91,SSW,205,6.0,8.0,-999,-99.99,,,-99.99,,2013-06-04 01:53:00,
2013-06-03 22:03:00,77.0,-99.9,29.92,SW,231,4.0,7.0,-999,-99.99,,,-99.99,,2013-06-04 02:03:00,
2013-06-03 22:12:00,77.0,-99.9,29.92,SSW,210,4.0,6.0,-999,-99.99,,,-99.99,,2013-06-04 02:12:00,
2013-06-03 22:22:00,77.0,-99.9,29.92,SW,214,5.0,6.0,-999,-99.99,,,-99.99,,2013-06-04 02:22:00,
2013-06-03 22:32:00,77.0,-99.9,29.93,SSW,211,4.0,5.0,-999,-99.99,,,-99.99,,2013-06-04 02:32:00,
2013-06-03 22:42:00,77.0,-99.9,29.94,SSE,155,1.0,5.0,-999,-99.99,,,-99.99,,2013-06-04 02:42:00,
2013-06-03 22:52:00,77.0,-99.9,29.94,SSW,208,-999.0,2.0,-999,-99.99,,,-99.99,,2013-06-04 02:52:00,
2013-06-03 23:02:00,77.0,-99.9,29.95,NE,49,1.0,2.0,-999,-99.99,,,-99.99,,2013-06-04 03:02:00,
2013-06-03 23:12:00,77.0,-99.9,29.95,East,100,2.0,3.0,-999,-99.99,,,-99.99,,2013-06-04 03:12:00,
2013-06-03 23:23:00,77.0,-99.9,29.96,South,190,0.0,2.0,-999,-99.99,,,-99.99,,2013-06-04 03:23:00,
2013-06-03 23:33:00,77.0,-99.9,29.96,NNW,343,5.0,5.0,-999,-99.99,,,-99.99,,2013-06-04 03:33:00,
2013-06-03 23:43:00,76.0,-99.9,29.96,NNW,345,7.0,11.0,-999,-99.99,,,-99.99,,2013-06-04 03:43:00,
2013-06-03 23:54:00,76.0,-99.9,29.96,NW,312,2.0,7.0,-999,-99.99,,,-99.99,,2013-06-04 03:54:00,